[[{"header":{"parameterUnit":"m.s-1","parameterCategory":1,"la1":30.2991,"la2":30.254,"lo1":-89.0895,"lo2":-89.0444,"dy":0.0017,"dx":0.0017,"nx":28,"ny":28,"refTime":"2023-09-17T21:00:00:Z","depth":0,"parameterNumber":2,"parameterNumberName":"U-component_of_WINDS"},"data":[0,0,0,0,0,0,0,0,0,0,0,0,0,0,0,0,0,0,0,0,0,0,0,0,0,0,0,0,0,0,0,0,0,0,0,0,0,0,0,0,0,0,0,0,0,0,0,0,0,0,0,0,0,0,0,0,0,0,-2.8838,-2.8839,0,-2.8932,-2.8933,-2.8934,-2.8817,-2.8812,-2.8808,-2.8804,-2.8902,-2.8909,-2.8915,0,0,0,0,0,0,0,0,0,0,0,0,0,-2.8559,-2.8565,-2.8838,-2.8839,-2.8841,-2.8932,-2.8933,-2.8934,-2.8817,-2.8812,-2.8807,-2.8802,-2.89,-2.8908,-2.8916,0,0,0,0,0,0,0,0,0,0,0,0,0,-2.8669,-2.8566,-2.8838,-2.8793,-2.879,-2.8932,-2.8933,-2.8935,-2.8818,-2.8812,-2.8805,-2.8799,-2.8897,-2.8907,-2.8917,-2.9108,0,0,-2.8947,-2.8952,0,0,0,0,0,0,0,0,-2.8663,-2.868,-2.8799,-2.8796,-2.8793,-2.8856,-2.887,-2.8993,-2.882,-2.8808,-2.8804,-2.8796,-2.8892,-2.8902,-2.8934,-2.9112,-2.9117,-2.8948,-2.8954,-2.8958,-2.8961,0,0,0,0,0,0,0,-2.8656,-2.8675,-2.8875,-2.88,-2.8797,-2.8769,-2.8777,-2.8893,-2.8885,-2.8808,-2.88,-2.8813,-2.8889,-2.8925,-2.8935,-2.9118,-2.8948,-2.8957,-2.8963,-2.8967,-2.9458,-2.9465,0,0,0,0,0,0,-2.8653,-2.8669,-2.8872,-2.8878,-2.8711,-2.8779,-2.8788,-2.8842,-2.8884,-2.8884,-2.8818,-2.8807,-2.8911,-2.8924,-2.8938,-2.9165,-2.8958,-2.8968,-2.8973,-2.9451,-2.9459,-2.9467,0,0,0,0,0,0,-2.8648,-2.8672,-2.8869,-2.8772,-2.8794,-2.8791,-2.8852,-2.8848,-2.8883,-2.8891,-2.8889,-2.8856,-2.8906,-2.8924,-2.9066,-2.9167,-2.8972,-2.8981,-2.9443,-2.9454,-2.9463,-2.9621,0,0,0,0,0,0,-2.864,-2.8671,-2.8744,-2.8774,-2.88,-2.8996,-2.8858,-2.8854,-2.89,-2.8886,-2.8926,-2.8926,-2.8903,-2.9052,-2.9076,-2.9177,-2.8989,-2.9434,-2.9447,-2.946,-2.9607,-2.9636,-2.966,0,0,0,0,0,-2.863,-2.8785,-2.8748,-2.8773,-2.889,-2.9001,-2.9016,-2.8986,-2.8909,-2.8982,-2.8987,-2.8925,-2.9152,-2.9068,-2.9094,-2.92,-2.9427,-2.9444,-2.9459,-2.9595,-2.963,-2.966,0,0,0,0,0,0,-2.8767,-2.8788,-2.8747,-2.8916,-2.8958,-2.8981,-2.9073,-2.9024,-2.9089,-2.9074,-2.9033,-2.9043,-2.9195,-2.9211,-2.9117,-2.9386,-2.9277,-2.9299,-2.9371,-2.9405,-2.9431,-2.9425,-2.8997,0,0,0,0,0,-2.8816,-2.8904,-2.8918,-2.9065,-2.9088,-2.9077,-2.9124,-2.9097,-2.9139,-2.9156,-2.9172,-2.9215,-2.9296,-2.9351,-2.9426,-2.9607,-2.9615,-2.9693,-2.972,-2.9742,-2.9762,-2.986,-2.9895,-2.9519,-2.9519,-2.9519,0,0,-2.892,-2.8942,-2.9001,-2.9093,-2.9122,-2.9215,-2.9093,-2.9196,-2.9264,-2.9172,-2.9308,-2.932,-2.9366,-2.9529,-2.9602,-2.9547,-2.9867,-2.9762,-2.9779,-2.9788,-2.988,-2.9915,-2.9947,-2.953,-2.9528,-2.9527,0,0,-2.9157,-2.9182,-2.9308,-2.9339,-2.9385,-2.9376,-2.9406,-2.9437,-2.9442,-2.9577,-2.9509,-2.959,-2.973,-2.9766,-2.9803,-3.0052,-2.9997,-3.0077,-3.0218,-3.0314,-3.0343,-3.0369,-3.046,-3.0492,-3.0096,-3.0097,-3.0097,0,-2.9281,-2.9417,-2.9379,-2.9487,-2.953,-2.9449,-2.9577,-2.9609,-2.9677,-2.9709,-2.9646,-2.9821,-2.9846,-3.0016,-3.0077,-3.0109,-3.0143,-3.0074,-3.0342,-3.0368,-3.0392,-3.0477,-3.0511,-3.0106,-3.0105,-3.0104,-3.0103,0,-2.9567,-2.9663,-2.9759,-2.9826,-2.988,-2.9997,-2.9977,-3.0036,-3.0003,-3.0001,-3.014,-3.0167,-3.0246,-3.0283,-3.0253,-3.045,-3.0415,-3.0348,-3.0237,-3.0438,-3.0517,-3.055,-3.012,-3.0117,-3.0114,-3.0111,0,0,-2.9895,-2.9938,-2.9975,-3.0004,-3.0048,-3.0121,-3.0234,-3.0311,-3.0363,-3.0412,-3.0507,-3.0626,-3.0564,-3.0606,-3.0578,-3.0662,-3.0859,-3.0585,-3.0585,-3.0636,-3.1079,-3.1131,-3.117,-3.0822,-3.0828,-3.0833,-3.1076,0,-3.0133,-3.033,-3.0298,-3.0488,-3.0576,-3.05,-3.0599,-3.0636,-3.0637,-3.0712,-3.0712,-3.0799,-3.071,-3.0734,-3.0814,-3.0819,-3.0948,-3.08,-3.0912,-3.0916,-3.0905,-3.1211,-3.1266,-3.1494,-3.1107,-3.1112,-3.1116,0,-3.0438,-3.0498,-3.0697,-3.0726,-3.0762,-3.0852,-3.0919,-3.0991,-3.1032,-3.1027,-3.1073,-3.103,-3.1143,-3.1029,-3.1185,-3.1085,-3.1128,-3.1137,-3.1145,-3.1157,-3.103,-3.1233,-3.1566,-3.1602,-3.1164,-3.116,-3.1157,0,-3.066,-3.079,-3.0925,-3.0953,-3.099,-3.1055,-3.1073,-3.1107,-3.1155,-3.1214,-3.1245,-3.1317,-3.1357,-3.1413,-3.139,-3.1309,-3.1552,-3.1435,-3.1552,-3.1553,-3.1609,-3.1606,-3.1956,-3.1633,-3.1633,-3.1632,-3.1631,0,-3.0931,-3.1056,-3.1026,-3.111,-3.1247,-3.1209,-3.1347,-3.1356,-3.1387,-3.1472,-3.1409,-3.149,-3.1454,-3.1533,-3.1515,-3.1648,-3.1666,-3.1666,-3.166,-3.1673,-3.1673,-3.1702,-3.1687,-3.1641,-3.1639,-3.1637,-3.1636,0,-3.1203,-3.1187,-3.1331,-3.1353,-3.1362,-3.1463,-3.1482,-3.1561,-3.1556,-3.1664,-3.1687,-3.168,-3.1769,-3.1751,-3.1849,-3.1837,-3.2004,-3.1978,-3.1991,-3.1986,-3.2104,-3.2094,-3.2487,-3.2537,-3.218,-3.2183,-3.2186,0,-3.1378,-3.1472,-3.1505,-3.1557,-3.158,-3.1664,-3.1713,-3.1678,-3.1731,-3.1784,-3.1857,-3.194,-3.2005,-3.2151,-3.2155,-3.2229,-3.2206,-3.2338,-3.2217,-3.2227,-3.221,-3.2206,-3.2215,-3.2363,-3.2367,-3.2371,-3.2373,0,-3.1691,-3.1678,-3.175,-3.182,-3.1879,-3.1932,-3.198,-3.2026,-3.1995,-3.2058,-3.2148,-3.2198,-3.2297,-3.2381,-3.245,-3.2469,-3.2418,-3.2411,-3.2442,-3.2458,-3.2462,-3.2463,-3.2059,-3.2403,-3.24,-3.2398,-3.2396,-3.2395,-3.1921,-3.2002,-3.2037,-3.2119,-3.2151,-3.2196,-3.2271,-3.2275,-3.2349,-3.2428,-3.2402,-3.2505,-3.2543,-3.263,-3.2657,-3.2737,-3.2688,-3.2733,-3.2744,-3.2757,-3.2772,-3.2447,-3.2749,-3.2748,-3.2747,-3.2747,-3.2746,0,-3.2232,-3.2251,-3.2327,-3.2394,-3.2459,-3.2402,-3.2451,-3.251,-3.2601,-3.264,-3.2705,-3.2808,-3.2889,-3.2898,-3.2974,-3.3037,-3.3015,-3.3058,-3.3054,-3.306,-3.2811,-3.2777,-3.3075,-3.3074,-3.3074,-3.3074,-3.3074,-3.3074,-3.2402,-3.2536,-3.2527,-3.2676,-3.2693,-3.2793,-3.2826,-3.2868,-3.2899,-3.3017,-3.3083,-3.3088,-3.3116,-3.3193,-3.3264,-3.3265,-3.3297,-3.335,-3.3342,-3.311,-3.3077,-3.3046,-3.3014,-3.3357,-3.3357,-3.3584,-3.3587,-3.3588]},{"header":{"parameterUnit":"m.s-1","parameterCategory":1,"la1":30.2991,"la2":30.254,"lo1":-89.0895,"lo2":-89.0444,"dy":0.0017,"dx":0.0017,"nx":28,"ny":28,"refTime":"2023-09-17T21:00:00:Z","depth":0,"parameterNumber":3,"parameterNumberName":"V-component_of_WINDS"},"data":[0,0,0,0,0,0,0,0,0,0,0,0,0,0,0,0,0,0,0,0,0,0,0,0,0,0,0,0,0,0,0,0,0,0,0,0,0,0,0,0,0,0,0,0,0,0,0,0,0,0,0,0,0,0,0,0,0,0,-2.6064,-2.6065,0,-2.6121,-2.6122,-2.6122,-2.6092,-2.609,-2.6088,-2.6087,-2.6144,-2.6147,-2.615,0,0,0,0,0,0,0,0,0,0,0,0,0,-2.5929,-2.5931,-2.6064,-2.6065,-2.6066,-2.6121,-2.6122,-2.6122,-2.6092,-2.609,-2.6088,-2.6086,-2.6143,-2.6146,-2.615,0,0,0,0,0,0,0,0,0,0,0,0,0,-2.5987,-2.5932,-2.6064,-2.6057,-2.6057,-2.6121,-2.6122,-2.6123,-2.6092,-2.609,-2.6088,-2.6085,-2.6142,-2.6146,-2.615,-2.6224,0,0,-2.6164,-2.6166,0,0,0,0,0,0,0,0,-2.5983,-2.5992,-2.6058,-2.6058,-2.6058,-2.6097,-2.6095,-2.6157,-2.6093,-2.6079,-2.6087,-2.6084,-2.613,-2.6135,-2.6151,-2.6227,-2.6229,-2.6164,-2.6167,-2.6169,-2.617,0,0,0,0,0,0,0,-2.5979,-2.5989,-2.6087,-2.6059,-2.6059,-2.6051,-2.6056,-2.6106,-2.6117,-2.608,-2.6078,-2.6085,-2.613,-2.6147,-2.6152,-2.623,-2.6164,-2.6168,-2.6171,-2.6173,-2.6369,-2.6371,0,0,0,0,0,0,-2.5976,-2.5986,-2.6085,-2.6088,-2.6014,-2.6055,-2.6061,-2.6087,-2.6116,-2.6118,-2.6087,-2.6083,-2.614,-2.6147,-2.6154,-2.6242,-2.6169,-2.6173,-2.6176,-2.6366,-2.6369,-2.6372,0,0,0,0,0,0,-2.5973,-2.5985,-2.6083,-2.6037,-2.6048,-2.606,-2.6088,-2.6089,-2.6106,-2.6121,-2.6123,-2.6102,-2.6139,-2.6148,-2.6207,-2.6243,-2.6175,-2.6179,-2.6363,-2.6367,-2.6371,-2.6419,0,0,0,0,0,0,-2.5969,-2.5984,-2.6013,-2.6038,-2.6051,-2.6135,-2.6091,-2.6092,-2.6114,-2.611,-2.6136,-2.6139,-2.6138,-2.62,-2.6211,-2.6248,-2.6183,-2.636,-2.6365,-2.637,-2.6414,-2.6424,-2.6432,0,0,0,0,0,-2.5965,-2.6024,-2.6014,-2.6026,-2.6087,-2.6137,-2.6145,-2.6143,-2.6117,-2.6145,-2.6155,-2.6138,-2.6238,-2.6207,-2.6219,-2.6258,-2.6358,-2.6364,-2.6369,-2.641,-2.6422,-2.6432,0,0,0,0,0,0,-2.6002,-2.6027,-2.6017,-2.6085,-2.611,-2.6132,-2.6168,-2.6156,-2.6187,-2.6182,-2.6178,-2.6184,-2.6246,-2.6258,-2.6223,-2.633,-2.6294,-2.6302,-2.632,-2.6332,-2.6341,-2.6337,-2.6186,0,0,0,0,0,-2.6019,-2.6058,-2.6077,-2.6136,-2.6149,-2.6156,-2.6178,-2.6175,-2.6199,-2.6209,-2.6223,-2.6248,-2.6284,-2.6309,-2.6344,-2.6415,-2.6421,-2.6448,-2.6457,-2.6465,-2.6472,-2.6511,-2.6523,-2.6391,-2.6391,-2.6391,0,0,-2.6053,-2.6071,-2.6096,-2.6144,-2.6162,-2.6203,-2.6165,-2.6209,-2.6239,-2.6216,-2.6272,-2.6284,-2.6311,-2.6377,-2.6406,-2.6388,-2.651,-2.6472,-2.6478,-2.6481,-2.6518,-2.653,-2.6541,-2.6395,-2.6394,-2.6394,0,0,-2.6135,-2.6153,-2.6204,-2.6224,-2.6252,-2.6257,-2.6269,-2.6293,-2.63,-2.6357,-2.634,-2.6376,-2.6439,-2.6459,-2.6477,-2.6568,-2.6553,-2.6579,-2.6627,-2.6665,-2.6675,-2.6684,-2.6717,-2.6728,-2.6587,-2.6587,-2.6587,0,-2.6174,-2.6235,-2.6232,-2.6278,-2.6299,-2.628,-2.6332,-2.635,-2.6389,-2.6404,-2.6383,-2.6463,-2.6479,-2.655,-2.6572,-2.6587,-2.6601,-2.6576,-2.6674,-2.6683,-2.6692,-2.6723,-2.6735,-2.659,-2.6589,-2.6589,-2.6589,0,-2.6281,-2.6323,-2.6361,-2.6399,-2.6425,-2.6473,-2.6477,-2.6504,-2.6498,-2.6505,-2.6563,-2.6582,-2.6621,-2.6637,-2.6632,-2.6707,-2.6695,-2.6674,-2.6637,-2.6707,-2.6736,-2.6748,-2.6594,-2.6593,-2.6592,-2.6591,0,0,-2.6389,-2.6425,-2.6439,-2.6455,-2.6485,-2.6518,-2.6565,-2.6603,-2.6626,-2.6653,-2.6692,-2.6747,-2.6728,-2.6749,-2.6746,-2.6779,-2.685,-2.6755,-2.6755,-2.6772,-2.6934,-2.6949,-2.6963,-2.684,-2.6842,-2.6844,-2.6931,0,-2.6474,-2.6557,-2.6556,-2.6633,-2.6672,-2.6655,-2.6696,-2.6719,-2.6726,-2.676,-2.6768,-2.6807,-2.678,-2.6792,-2.6824,-2.6834,-2.6882,-2.6828,-2.6877,-2.6879,-2.6871,-2.6978,-2.6994,-2.7075,-2.6943,-2.6945,-2.6946,0,-2.6584,-2.6615,-2.6696,-2.672,-2.6736,-2.6774,-2.6808,-2.6841,-2.6866,-2.687,-2.6893,-2.6885,-2.6933,-2.6895,-2.6961,-2.6924,-2.6944,-2.6952,-2.6955,-2.6959,-2.6916,-2.6985,-2.7101,-2.7113,-2.6964,-2.6962,-2.6961,0,-2.6654,-2.6716,-2.6773,-2.6788,-2.6817,-2.6844,-2.6858,-2.6881,-2.6904,-2.6934,-2.6949,-2.6984,-2.7003,-2.7031,-2.7032,-2.7004,-2.7099,-2.7061,-2.7103,-2.7103,-2.7124,-2.7122,-2.7245,-2.7137,-2.7136,-2.7136,-2.7136,0,-2.6749,-2.6799,-2.6805,-2.684,-2.6896,-2.6894,-2.6949,-2.696,-2.6981,-2.7017,-2.7004,-2.7038,-2.7038,-2.7073,-2.7075,-2.7129,-2.7138,-2.7142,-2.7142,-2.7143,-2.7143,-2.7156,-2.715,-2.7139,-2.7139,-2.7138,-2.7137,0,-2.6837,-2.6843,-2.6904,-2.6927,-2.6934,-2.6974,-2.6994,-2.7027,-2.7033,-2.708,-2.709,-2.7101,-2.7141,-2.7145,-2.7192,-2.7193,-2.7259,-2.7253,-2.7251,-2.725,-2.7292,-2.7288,-2.7427,-2.7445,-2.7325,-2.7326,-2.7327,0,-2.6897,-2.6936,-2.6963,-2.6987,-2.7002,-2.704,-2.7064,-2.7063,-2.7088,-2.712,-2.7149,-2.7188,-2.722,-2.7286,-2.7297,-2.7333,-2.7328,-2.7374,-2.7333,-2.7333,-2.7329,-2.7326,-2.733,-2.7382,-2.7383,-2.7384,-2.7385,0,-2.7003,-2.7004,-2.7039,-2.7074,-2.7103,-2.7131,-2.7157,-2.7177,-2.718,-2.7208,-2.725,-2.7274,-2.7323,-2.7362,-2.7397,-2.7411,-2.7399,-2.7398,-2.741,-2.7412,-2.7409,-2.7411,-2.7273,-2.7395,-2.7394,-2.7393,-2.7393,-2.7392,-2.7079,-2.7113,-2.7137,-2.7176,-2.7196,-2.7221,-2.7253,-2.7263,-2.7298,-2.7338,-2.7335,-2.7381,-2.7405,-2.7452,-2.7468,-2.7504,-2.7489,-2.7505,-2.751,-2.7514,-2.7518,-2.7403,-2.751,-2.751,-2.751,-2.751,-2.751,0,-2.7185,-2.72,-2.7235,-2.7273,-2.7303,-2.7289,-2.7317,-2.7344,-2.7384,-2.7408,-2.744,-2.7487,-2.7526,-2.754,-2.7577,-2.7603,-2.7599,-2.7613,-2.7611,-2.7615,-2.753,-2.7516,-2.7616,-2.7616,-2.7616,-2.7616,-2.7616,-2.7616,-2.7243,-2.7299,-2.7303,-2.7368,-2.7383,-2.7428,-2.7445,-2.7468,-2.7487,-2.7541,-2.7573,-2.7582,-2.7602,-2.7641,-2.7675,-2.7679,-2.7693,-2.771,-2.7711,-2.7631,-2.7621,-2.761,-2.7597,-2.7713,-2.7713,-2.7793,-2.7793,-2.7794]}]]